TGM annuale;;;;;;;;;;;;;;;TGM annuale;;;;;;;;;;;;;;;TGM annuale;;;;;;;;;;;;;
Tratta nr.17 SR68, Km 40.850, Volterra(PI) (flussi ascendente/discendente);;;;;;;;;;;;;;;Tratta nr.17 SR68, Km 40.850, Volterra(PI) (flusso ascendente);;;;;;;;;;;;;;;Tratta nr.17 SR68, Km 40.850, Volterra(PI) (flusso discendente);;;;;;;;;;;;;
Anno;01 Motocicli;02 Auto e monovolume;03 Auto e monovolume con rimorchio;04 Furgoncini e camioncini;05 Camion;06 Autotreni;07 Autoarticolati;08 Autobus;09 Veicoli non classificati;Totale;Feriali;Festivi;Prefestivi;;Anno;01 Motocicli;02 Auto e monovolume;03 Auto e monovolume con rimorchio;04 Furgoncini e camioncini;05 Camion;06 Autotreni;07 Autoarticolati;08 Autobus;09 Veicoli non classificati;Totale;Feriali;Festivi;Prefestivi;;Anno;01 Motocicli;02 Auto e monovolume;03 Auto e monovolume con rimorchio;04 Furgoncini e camioncini;05 Camion;06 Autotreni;07 Autoarticolati;08 Autobus;09 Veicoli non classificati;Totale;Feriali;Festivi;Prefestivi
2016;562;3734;3;371;74;9;5;5;0;4762;4674;4964;4945;;2016;322;1887;2;203;41;5;3;3;0;2465;2405;2702;2466;;2016;240;1847;1;168;33;4;3;2;0;2297;2269;2262;2479
;;;;;;;;;;;;;;;;;;;;;;;;;;;;;;;;;;;;;;;;;;;
Tabella flussi 2016;;;;;;;;;;;;;;;Tabella flussi 2016;;;;;;;;;;;;;;;Tabella flussi 2016;;;;;;;;;;;;;
Tratta nr.17 SR68, Km 40.850, Volterra(PI) (flussi ascendente/discendente);;;;;;;;;;;;;;;Tratta nr.17 SR68, Km 40.850, Volterra(PI) (flusso ascendente);;;;;;;;;;;;;;;Tratta nr.17 SR68, Km 40.850, Volterra(PI) (flusso discendente);;;;;;;;;;;;;
;Traffico Totale;;;;;;;;;;Traffico Med.Orario 06:00 - 20:00;Traffico Ora di punta;;;;Traffico Totale;;;;;;;;;;Traffico Med.Orario 06:00 - 20:00;Traffico Ora di punta;;;;Traffico Totale;;;;;;;;;;Traffico Med.Orario 06:00 - 20:00;Traffico Ora di punta;
Giorno;01 Motocicli;02 Auto e monovolume;03 Auto e monovolume con rimorchio;04 Furgoncini e camioncini;05 Camion;06 Autotreni;07 Autoarticolati;08 Autobus;09 Veicoli non classificati;Totale;Totale;Ora di punta;Flusso totale ora di punta;;Giorno;01 Motocicli;02 Auto e monovolume;03 Auto e monovolume con rimorchio;04 Furgoncini e camioncini;05 Camion;06 Autotreni;07 Autoarticolati;08 Autobus;09 Veicoli non classificati;Totale;Totale;Ora di punta;Flusso totale ora di punta;;Giorno;01 Motocicli;02 Auto e monovolume;03 Auto e monovolume con rimorchio;04 Furgoncini e camioncini;05 Camion;06 Autotreni;07 Autoarticolati;08 Autobus;09 Veicoli non classificati;Totale;Totale;Ora di punta;Flusso totale ora di punta
01/01/2016;606;4276;1;318;33;3;0;1;0;5238;319;16;611;;01/01/2016;334;2129;1;180;22;2;0;0;0;2668;165;17;357;;01/01/2016;272;2147;0;138;11;1;0;1;0;2570;154;11;297
02/01/2016;355;3366;1;376;55;6;2;3;0;4164;272;11;436;;02/01/2016;244;1722;0;214;34;5;1;3;0;2223;147;15;262;;02/01/2016;111;1644;1;162;21;1;1;0;0;1941;125;11;252
03/01/2016;482;3566;3;295;32;3;0;1;0;4382;282;15;459;;03/01/2016;296;1861;1;180;26;1;0;0;0;2365;152;15;278;;03/01/2016;186;1705;2;115;6;2;0;1;0;2017;129;11;251
04/01/2016;354;2763;0;291;41;3;2;0;0;3454;220;17;317;;04/01/2016;227;1404;0;158;26;2;0;0;0;1817;116;17;166;;04/01/2016;127;1359;0;133;15;1;2;0;0;1637;104;17;151
05/01/2016;337;2702;0;281;57;5;4;1;0;3387;210;15;277;;05/01/2016;221;1362;0;150;30;2;3;0;0;1768;109;15;150;;05/01/2016;116;1340;0;131;27;3;1;1;0;1619;101;11;144
06/01/2016;278;1892;0;141;13;1;0;0;0;2325;137;17;222;;06/01/2016;167;926;0;82;9;0;0;0;0;1184;72;15;112;;06/01/2016;111;966;0;59;4;1;0;0;0;1141;65;17;114
07/01/2016;272;2287;1;262;55;2;6;0;0;2885;186;7;248;;07/01/2016;184;1158;1;139;33;0;3;0;0;1518;97;7;170;;07/01/2016;88;1129;0;123;22;2;3;0;0;1367;89;17;127
08/01/2016;342;2384;2;267;37;7;4;0;0;3043;195;17;252;;08/01/2016;228;1211;2;144;18;4;1;0;0;1608;102;7;152;;08/01/2016;114;1173;0;123;19;3;3;0;0;1435;93;17;149
09/01/2016;316;2206;1;237;34;2;2;0;0;2798;169;17;219;;09/01/2016;175;1118;0;135;18;1;2;0;0;1449;88;9;107;;09/01/2016;141;1088;1;102;16;1;0;0;0;1349;81;17;127
10/01/2016;374;2346;0;165;14;1;0;0;0;2900;176;17;261;;10/01/2016;219;1180;0;94;9;1;0;0;0;1503;93;17;138;;10/01/2016;155;1166;0;71;5;0;0;0;0;1397;83;11;134
11/01/2016;353;2439;0;293;58;7;6;0;0;3156;201;7;272;;11/01/2016;233;1264;0;164;30;6;3;0;0;1700;109;7;184;;11/01/2016;120;1175;0;129;28;1;3;0;0;1456;93;17;153
12/01/2016;314;2371;0;319;64;6;10;0;0;3084;197;17;252;;12/01/2016;198;1192;0;174;38;6;4;0;0;1612;103;7;154;;12/01/2016;116;1179;0;145;26;0;6;0;0;1472;95;17;156
13/01/2016;345;2526;1;325;55;9;8;0;0;3269;207;7;267;;13/01/2016;218;1287;0;179;29;6;3;0;0;1722;109;7;159;;13/01/2016;127;1239;1;146;26;3;5;0;0;1547;99;17;147
14/01/2016;310;2407;0;268;45;5;9;0;0;3044;196;17;263;;14/01/2016;223;1227;0;151;27;2;2;0;0;1632;106;7;154;;14/01/2016;87;1180;0;117;18;3;7;0;0;1412;90;17;143
15/01/2016;356;2647;2;291;53;4;6;0;0;3359;215;17;288;;15/01/2016;243;1308;2;156;28;4;3;0;0;1744;114;7;185;;15/01/2016;113;1339;0;135;25;0;3;0;0;1615;101;17;158
16/01/2016;359;2426;1;268;42;2;0;0;0;3098;189;17;245;;16/01/2016;220;1212;1;149;24;2;0;0;0;1608;99;15;127;;16/01/2016;139;1214;0;119;18;0;0;0;0;1490;91;17;124
17/01/2016;408;2326;2;192;18;0;0;0;0;2946;182;16;301;;17/01/2016;245;1192;1;117;15;0;0;0;0;1570;98;17;172;;17/01/2016;163;1134;1;75;3;0;0;0;0;1376;85;12;141
18/01/2016;320;2469;0;312;59;2;4;0;0;3166;203;17;285;;18/01/2016;212;1257;0;181;35;2;1;0;0;1688;109;7;171;;18/01/2016;108;1212;0;131;24;0;3;0;0;1478;95;17;159
19/01/2016;307;2399;1;300;68;8;5;0;0;3088;197;17;281;;19/01/2016;205;1234;1;171;36;5;2;0;0;1654;104;7;145;;19/01/2016;102;1165;0;129;32;3;3;0;0;1434;93;17;170
20/01/2016;349;2476;1;319;63;6;8;0;0;3222;208;7;277;;20/01/2016;230;1264;1;172;30;4;5;0;0;1706;110;7;173;;20/01/2016;119;1212;0;147;33;2;3;0;0;1516;97;18;143
21/01/2016;312;2475;0;335;59;3;5;0;0;3189;206;17;283;;21/01/2016;196;1237;0;187;37;1;2;0;0;1660;107;7;160;;21/01/2016;116;1238;0;148;22;2;3;0;0;1529;100;17;167
22/01/2016;352;2486;1;358;68;6;6;0;0;3277;207;17;282;;22/01/2016;220;1228;1;197;39;4;1;0;0;1690;108;7;172;;22/01/2016;132;1258;0;161;29;2;5;0;0;1587;99;17;168
23/01/2016;344;2362;0;271;34;1;4;0;0;3016;187;15;231;;23/01/2016;197;1170;0;152;21;0;3;0;0;1543;97;14;146;;23/01/2016;147;1192;0;119;13;1;1;0;0;1473;90;16;123
24/01/2016;395;2496;0;175;11;2;0;0;0;3079;186;16;293;;24/01/2016;225;1263;0;110;9;1;0;0;0;1608;100;17;166;;24/01/2016;170;1233;0;65;2;1;0;0;0;1471;86;16;150
25/01/2016;309;2391;0;306;69;7;6;0;0;3088;199;7;299;;25/01/2016;208;1231;0;166;36;6;2;0;0;1649;106;7;196;;25/01/2016;101;1160;0;140;33;1;4;0;0;1439;93;17;130
26/01/2016;223;2235;0;317;76;10;7;0;0;2868;183;7;252;;26/01/2016;135;1128;0;171;41;4;2;0;0;1481;94;7;155;;26/01/2016;88;1107;0;146;35;6;5;0;0;1387;88;17;121
27/01/2016;260;2362;1;322;68;5;3;0;0;3021;195;7;295;;27/01/2016;164;1192;1;170;32;4;2;0;0;1565;101;7;201;;27/01/2016;96;1170;0;152;36;1;1;0;0;1456;94;17;143
28/01/2016;313;2452;2;321;61;6;8;1;0;3164;201;17;261;;28/01/2016;215;1216;1;177;36;1;2;1;0;1649;103;7;166;;28/01/2016;98;1236;1;144;25;5;6;0;0;1515;98;17;166
29/01/2016;313;2418;4;267;60;4;4;1;0;3071;194;8;250;;29/01/2016;198;1199;3;143;34;3;2;0;0;1582;101;7;158;;29/01/2016;115;1219;1;124;26;1;2;1;0;1489;93;17;150
30/01/2016;320;2405;3;230;30;2;2;0;0;2992;183;17;262;;30/01/2016;183;1189;1;139;16;2;1;0;0;1531;92;13;116;;30/01/2016;137;1216;2;91;14;0;1;0;0;1461;92;17;163
31/01/2016;282;2220;1;152;14;2;0;1;0;2672;160;17;251;;31/01/2016;169;1110;1;97;8;0;0;1;0;1386;85;17;148;;31/01/2016;113;1110;0;55;6;2;0;0;0;1286;75;11;136
01/02/2016;329;2414;1;304;50;5;6;0;0;3109;199;17;264;;01/02/2016;213;1245;1;173;28;4;1;0;0;1665;107;7;168;;01/02/2016;116;1169;0;131;22;1;5;0;0;1444;93;17;145
02/02/2016;292;2389;2;300;48;10;8;0;0;3049;194;17;256;;02/02/2016;202;1252;2;147;22;7;4;0;0;1636;102;7;156;;02/02/2016;90;1137;0;153;26;3;4;0;0;1413;92;17;147
03/02/2016;271;2312;1;275;64;6;7;0;0;2936;188;17;238;;03/02/2016;172;1178;0;146;35;3;2;0;0;1536;99;7;140;;03/02/2016;99;1134;1;129;29;3;5;0;0;1400;89;18;133
04/02/2016;333;2605;0;310;45;7;9;0;0;3309;213;17;272;;04/02/2016;223;1337;0;162;23;6;4;0;0;1755;113;15;158;;04/02/2016;110;1268;0;148;22;1;5;0;0;1554;99;17;154
05/02/2016;319;2529;0;335;68;9;4;0;0;3264;208;17;279;;05/02/2016;207;1247;0;176;34;2;1;0;0;1667;106;7;164;;05/02/2016;112;1282;0;159;34;7;3;0;0;1597;102;17;168
06/02/2016;325;2438;1;193;28;1;0;0;0;2986;187;17;244;;06/02/2016;203;1211;1;105;16;1;0;0;0;1537;96;17;148;;06/02/2016;122;1227;0;88;12;0;0;0;0;1449;91;11;124
07/02/2016;315;2028;0;122;10;3;0;0;0;2478;149;16;237;;07/02/2016;205;1097;0;70;4;1;0;0;0;1377;84;16;132;;07/02/2016;110;931;0;52;6;2;0;0;0;1101;65;16;105
08/02/2016;312;2486;1;303;60;4;4;0;0;3170;200;17;272;;08/02/2016;203;1269;1;160;31;1;3;0;0;1668;105;7;157;;08/02/2016;109;1217;0;143;29;3;1;0;0;1502;95;17;153
09/02/2016;263;2272;2;293;65;3;2;0;0;2900;185;17;259;;09/02/2016;182;1179;2;164;39;1;1;0;0;1568;99;7;136;;09/02/2016;81;1093;0;129;26;2;1;0;0;1332;85;17;148
10/02/2016;318;2398;1;313;59;10;4;0;0;3103;195;17;253;;10/02/2016;218;1210;1;173;34;5;0;0;0;1641;103;7;168;;10/02/2016;100;1188;0;140;25;5;4;0;0;1462;93;17;132
11/02/2016;325;2433;0;335;49;14;6;1;0;3163;204;17;267;;11/02/2016;204;1235;0;181;30;6;1;1;0;1658;105;7;146;;11/02/2016;121;1198;0;154;19;8;5;0;0;1505;99;18;153
12/02/2016;286;2422;0;230;60;1;5;0;0;3004;187;17;238;;12/02/2016;194;1193;0;119;32;1;2;0;0;1541;97;7;149;;12/02/2016;92;1229;0;111;28;0;3;0;0;1463;90;17;144
13/02/2016;312;2326;0;218;34;4;1;1;0;2896;176;15;252;;13/02/2016;195;1176;0;114;18;1;1;1;0;1506;91;15;136;;13/02/2016;117;1150;0;104;16;3;0;0;0;1390;84;11;127
14/02/2016;361;2215;0;136;21;0;0;1;0;2734;165;16;270;;14/02/2016;192;1144;0;84;14;0;0;1;0;1435;88;17;163;;14/02/2016;169;1071;0;52;7;0;0;0;0;1299;78;11;120
15/02/2016;313;2327;0;275;48;3;3;0;0;2969;189;7;274;;15/02/2016;202;1196;0;152;26;1;2;0;0;1579;102;7;189;;15/02/2016;111;1131;0;123;22;2;1;0;0;1390;88;17;114
16/02/2016;305;2766;0;322;90;9;6;4;0;3502;222;17;305;;16/02/2016;205;1370;0;178;49;6;5;3;0;1816;115;8;148;;16/02/2016;100;1396;0;144;41;3;1;1;0;1686;108;17;168
17/02/2016;365;3091;1;327;85;12;11;8;0;3900;249;17;311;;17/02/2016;218;1520;1;162;48;5;5;6;0;1965;126;7;174;;17/02/2016;147;1571;0;165;37;7;6;2;0;1935;123;18;186
18/02/2016;433;3212;0;368;83;7;7;5;0;4115;265;7;331;;18/02/2016;263;1602;0;193;50;4;0;3;0;2115;135;7;212;;18/02/2016;170;1610;0;175;33;3;7;2;0;2000;130;17;177
19/02/2016;368;2697;0;335;46;8;9;0;0;3463;216;17;275;;19/02/2016;231;1344;0;179;27;3;6;0;0;1790;112;7;160;;19/02/2016;137;1353;0;156;19;5;3;0;0;1673;104;17;158
20/02/2016;384;2695;0;240;34;6;2;0;0;3361;209;17;284;;20/02/2016;250;1330;0;133;17;5;1;0;0;1736;107;15;169;;20/02/2016;134;1365;0;107;17;1;1;0;0;1625;102;16;145
21/02/2016;398;2746;0;173;20;5;1;1;0;3344;204;17;331;;21/02/2016;258;1466;0;102;11;3;1;0;0;1841;113;17;217;;21/02/2016;140;1280;0;71;9;2;0;1;0;1503;91;10;150
22/02/2016;336;2529;0;304;49;6;3;0;0;3227;207;7;292;;22/02/2016;235;1278;0;158;30;2;1;0;0;1704;109;7;193;;22/02/2016;101;1251;0;146;19;4;2;0;0;1523;98;17;148
23/02/2016;316;2298;1;313;55;8;2;1;0;2994;193;7;260;;23/02/2016;214;1162;1;166;29;7;1;1;0;1581;101;7;156;;23/02/2016;102;1136;0;147;26;1;1;0;0;1413;92;17;131
24/02/2016;330;2543;0;320;50;8;6;0;0;3257;207;17;281;;24/02/2016;212;1279;0;173;25;4;3;0;0;1696;108;7;155;;24/02/2016;118;1264;0;147;25;4;3;0;0;1561;99;17;150
25/02/2016;321;2534;0;305;53;8;6;2;0;3229;204;17;271;;25/02/2016;207;1305;0;167;38;3;3;2;0;1725;108;7;152;;25/02/2016;114;1229;0;138;15;5;3;0;0;1504;96;17;136
26/02/2016;322;2514;2;308;63;6;3;1;0;3219;204;19;244;;26/02/2016;208;1253;1;168;34;5;2;0;0;1671;108;7;151;;26/02/2016;114;1261;1;140;29;1;1;1;0;1548;97;17;143
27/02/2016;294;2047;1;199;32;6;0;0;0;2579;156;12;216;;27/02/2016;196;1042;0;109;18;3;0;0;0;1368;83;13;119;;27/02/2016;98;1005;1;90;14;3;0;0;0;1211;72;10;111
28/02/2016;293;2004;0;159;18;1;0;0;0;2475;149;16;252;;28/02/2016;186;1036;0;98;10;1;0;0;0;1331;83;16;148;;28/02/2016;107;968;0;61;8;0;0;0;0;1144;66;18;107
29/02/2016;297;2267;0;255;60;7;10;0;0;2896;186;7;252;;29/02/2016;219;1183;0;130;36;6;5;0;0;1579;101;7;167;;29/02/2016;78;1084;0;125;24;1;5;0;0;1317;84;18;117
01/03/2016;367;2501;4;306;64;8;8;1;0;3259;209;17;319;;01/03/2016;240;1235;0;158;35;6;2;1;0;1677;107;17;150;;01/03/2016;127;1266;4;148;29;2;6;0;0;1582;102;17;169
02/03/2016;354;2613;2;316;70;11;3;0;0;3369;217;17;278;;02/03/2016;238;1326;1;166;45;7;2;0;0;1785;115;7;160;;02/03/2016;116;1287;1;150;25;4;1;0;0;1584;101;17;145
03/03/2016;339;2481;3;309;64;11;3;0;0;3210;206;17;278;;03/03/2016;225;1243;1;159;38;6;1;0;0;1673;107;8;141;;03/03/2016;114;1238;2;150;26;5;2;0;0;1537;99;17;152
04/03/2016;376;2676;3;318;63;9;3;0;0;3448;221;17;293;;04/03/2016;265;1338;2;169;32;5;2;0;0;1813;115;7;168;;04/03/2016;111;1338;1;149;31;4;1;0;0;1635;105;17;167
05/03/2016;284;2190;1;234;30;5;2;2;0;2748;170;12;237;;05/03/2016;192;1098;1;118;18;3;1;0;0;1431;89;12;130;;05/03/2016;92;1092;0;116;12;2;1;2;0;1317;81;11;118
06/03/2016;337;2164;3;174;27;3;0;0;0;2708;165;17;264;;06/03/2016;216;1155;1;101;17;2;0;0;0;1492;93;17;177;;06/03/2016;121;1009;2;73;10;1;0;0;0;1216;71;11;132
07/03/2016;320;2363;1;325;60;6;8;2;0;3085;198;17;259;;07/03/2016;218;1197;0;173;35;2;2;1;0;1628;104;7;149;;07/03/2016;102;1166;1;152;25;4;6;1;0;1457;94;17;130
08/03/2016;314;2433;1;266;80;5;5;0;0;3104;197;7;261;;08/03/2016;206;1247;1;144;44;4;3;0;0;1649;104;7;165;;08/03/2016;108;1186;0;122;36;1;2;0;0;1455;93;17;121
09/03/2016;304;2498;4;328;74;5;12;1;0;3226;201;17;273;;09/03/2016;213;1235;3;180;38;2;5;0;0;1676;105;16;142;;09/03/2016;91;1263;1;148;36;3;7;1;0;1550;96;17;147
10/03/2016;410;2705;2;343;59;8;5;4;0;3536;225;17;300;;10/03/2016;285;1354;1;192;38;2;3;1;0;1876;118;7;176;;10/03/2016;125;1351;1;151;21;6;2;3;0;1660;107;17;155
11/03/2016;416;2953;2;353;66;5;6;1;0;3802;241;17;318;;11/03/2016;283;1461;2;195;43;3;3;1;0;1991;126;7;174;;11/03/2016;133;1492;0;158;23;2;3;0;0;1811;114;17;172
12/03/2016;433;2928;1;292;56;3;5;1;0;3719;231;14;293;;12/03/2016;269;1455;1;159;35;2;1;0;0;1922;119;16;179;;12/03/2016;164;1473;0;133;21;1;4;1;0;1797;111;11;176
13/03/2016;454;3065;3;230;24;9;0;1;0;3786;236;17;360;;13/03/2016;306;1602;2;137;15;6;0;1;0;2069;130;17;217;;13/03/2016;148;1463;1;93;9;3;0;0;0;1717;106;10;164
14/03/2016;267;2300;2;316;53;6;6;0;0;2950;189;17;266;;14/03/2016;174;1204;1;173;27;2;4;0;0;1585;100;7;171;;14/03/2016;93;1096;1;143;26;4;2;0;0;1365;88;17;133
15/03/2016;319;2585;1;367;72;13;9;3;0;3369;217;17;285;;15/03/2016;227;1316;1;185;34;6;6;2;0;1777;115;7;166;;15/03/2016;92;1269;0;182;38;7;3;1;0;1592;102;18;150
16/03/2016;354;2553;0;349;98;7;3;0;0;3364;214;17;279;;16/03/2016;252;1326;0;191;52;3;1;0;0;1825;116;7;186;;16/03/2016;102;1227;0;158;46;4;2;0;0;1539;98;17;137
17/03/2016;331;2565;3;321;102;9;5;0;0;3336;213;17;277;;17/03/2016;235;1289;2;179;54;7;2;0;0;1768;113;17;145;;17/03/2016;96;1276;1;142;48;2;3;0;0;1568;100;18;140
18/03/2016;378;2949;4;397;82;4;6;0;0;3820;239;17;326;;18/03/2016;238;1433;2;229;41;2;3;0;0;1948;123;7;160;;18/03/2016;140;1516;2;168;41;2;3;0;0;1872;116;17;169
19/03/2016;440;3072;0;305;70;4;3;0;0;3894;236;17;314;;19/03/2016;274;1532;0;168;44;3;1;0;0;2022;121;16;176;;19/03/2016;166;1540;0;137;26;1;2;0;0;1872;115;11;155
20/03/2016;474;3150;2;226;14;10;0;1;0;3877;240;17;408;;20/03/2016;316;1667;1;135;8;6;0;1;0;2134;134;17;271;;20/03/2016;158;1483;1;91;6;4;0;0;0;1743;105;11;163
21/03/2016;310;2703;3;367;81;10;4;3;0;3481;224;17;316;;21/03/2016;227;1376;1;203;53;6;1;2;0;1869;120;7;183;;21/03/2016;83;1327;2;164;28;4;3;1;0;1612;103;17;155
22/03/2016;364;2845;0;417;104;13;7;1;0;3751;242;17;300;;22/03/2016;254;1464;0;234;50;11;4;1;0;2018;129;7;161;;22/03/2016;110;1381;0;183;54;2;3;0;0;1733;113;17;152
23/03/2016;386;3150;2;441;70;6;9;1;0;4065;256;18;352;;23/03/2016;256;1607;1;241;40;2;5;1;0;2153;137;18;172;;23/03/2016;130;1543;1;200;30;4;4;0;0;1912;119;18;180
24/03/2016;387;3124;2;402;65;8;6;3;0;3997;252;17;338;;24/03/2016;252;1540;0;196;35;4;3;2;0;2032;128;14;172;;24/03/2016;135;1584;2;206;30;4;3;1;0;1965;124;17;182
25/03/2016;433;3705;2;559;64;11;3;3;0;4780;302;17;442;;25/03/2016;276;1815;1;274;32;7;2;1;0;2408;153;17;216;;25/03/2016;157;1890;1;285;32;4;1;2;0;2372;149;17;226
26/03/2016;494;4639;4;630;77;22;6;4;0;5876;376;15;555;;26/03/2016;304;2235;1;311;45;13;4;4;0;2917;186;17;324;;26/03/2016;190;2404;3;319;32;9;2;0;0;2959;190;10;288
27/03/2016;569;5553;2;549;43;23;3;5;0;6747;425;17;772;;27/03/2016;348;2755;1;301;31;12;2;3;0;3453;216;17;448;;27/03/2016;221;2798;1;248;12;11;1;2;0;3294;209;11;420
28/03/2016;683;6226;1;544;44;11;1;3;0;7513;474;18;819;;28/03/2016;462;3405;1;327;34;5;1;2;0;4237;268;18;602;;28/03/2016;221;2821;0;217;10;6;0;1;0;3276;206;11;441
29/03/2016;412;3276;1;487;78;16;8;1;0;4279;270;17;346;;29/03/2016;272;1693;1;278;38;9;4;1;0;2296;146;16;190;;29/03/2016;140;1583;0;209;40;7;4;0;0;1983;124;11;173
30/03/2016;352;3081;1;504;66;7;3;1;0;4015;258;17;311;;30/03/2016;236;1566;1;250;34;3;2;1;0;2093;136;7;172;;30/03/2016;116;1515;0;254;32;4;1;0;0;1922;122;18;160
31/03/2016;347;3062;2;417;79;10;5;3;0;3925;248;15;322;;31/03/2016;239;1542;1;225;47;6;3;3;0;2066;129;15;192;;31/03/2016;108;1520;1;192;32;4;2;0;0;1859;119;17;169
01/04/2016;362;3011;0;428;89;8;7;5;0;3910;246;17;351;;01/04/2016;230;1514;0;222;48;3;4;2;0;2023;127;15;168;;01/04/2016;132;1497;0;206;41;5;3;3;0;1887;119;17;189
02/04/2016;437;3317;4;386;71;9;3;0;0;4227;260;16;412;;02/04/2016;279;1679;2;179;37;4;1;0;0;2181;135;16;266;;02/04/2016;158;1638;2;207;34;5;2;0;0;2046;125;15;174
03/04/2016;546;3695;4;265;33;3;0;4;0;4550;278;18;459;;03/04/2016;337;1990;2;156;21;2;0;3;0;2511;153;18;306;;03/04/2016;209;1705;2;109;12;1;0;1;0;2039;124;11;226
04/04/2016;357;2949;1;357;78;4;5;6;0;3757;237;14;286;;04/04/2016;231;1521;1;205;48;0;2;4;0;2012;128;7;181;;04/04/2016;126;1428;0;152;30;4;3;2;0;1745;110;11;134
05/04/2016;306;2856;0;386;81;12;6;6;0;3653;231;17;305;;05/04/2016;199;1439;0;199;36;4;3;4;0;1884;119;14;163;;05/04/2016;107;1417;0;187;45;8;3;2;0;1769;112;17;158
06/04/2016;351;3004;0;434;96;8;8;2;0;3903;249;17;304;;06/04/2016;220;1533;0;223;47;3;3;1;0;2030;130;16;176;;06/04/2016;131;1471;0;211;49;5;5;1;0;1873;119;12;144
07/04/2016;360;2818;1;351;101;13;6;2;0;3652;231;17;275;;07/04/2016;232;1405;0;207;55;10;2;2;0;1913;121;7;159;;07/04/2016;128;1413;1;144;46;3;4;0;0;1739;110;10;142
08/04/2016;332;3044;2;383;97;12;3;6;0;3879;246;15;317;;08/04/2016;214;1497;1;222;41;7;1;5;0;1988;126;7;175;;08/04/2016;118;1547;1;161;56;5;2;1;0;1891;120;17;166
09/04/2016;447;3164;6;306;76;5;1;5;0;4010;247;12;323;;09/04/2016;250;1535;4;176;40;2;0;4;0;2011;126;14;188;;09/04/2016;197;1629;2;130;36;3;1;1;0;1999;122;11;196
10/04/2016;585;3767;2;277;46;1;2;1;0;4681;285;16;440;;10/04/2016;326;1970;0;157;27;1;2;1;0;2484;153;17;299;;10/04/2016;259;1797;2;120;19;0;0;0;0;2197;131;11;233
11/04/2016;382;3080;0;366;66;3;6;5;0;3908;251;17;327;;11/04/2016;247;1590;0;195;42;3;2;3;0;2082;135;17;193;;11/04/2016;135;1490;0;171;24;0;4;2;0;1826;115;12;152
12/04/2016;357;3025;2;432;94;6;9;6;0;3931;251;17;324;;12/04/2016;243;1553;1;244;53;2;3;4;0;2103;135;15;182;;12/04/2016;114;1472;1;188;41;4;6;2;0;1828;116;17;157
13/04/2016;379;3146;3;430;80;8;4;8;0;4058;258;18;321;;13/04/2016;224;1618;1;228;42;5;1;7;0;2126;136;7;176;;13/04/2016;155;1528;2;202;38;3;3;1;0;1932;122;17;155
14/04/2016;439;3334;10;446;118;13;3;4;0;4367;264;17;328;;14/04/2016;278;1671;3;225;67;7;1;2;0;2254;134;15;165;;14/04/2016;161;1663;7;221;51;6;2;2;0;2113;130;17;180
15/04/2016;481;3774;23;508;137;7;10;10;0;4950;305;17;373;;15/04/2016;293;1889;17;281;70;5;5;6;0;2566;162;7;233;;15/04/2016;188;1885;6;227;67;2;5;4;0;2384;143;18;203
16/04/2016;670;4688;22;414;105;3;5;6;0;5913;359;9;482;;16/04/2016;451;2609;9;240;66;2;4;3;0;3384;204;9;327;;16/04/2016;219;2079;13;174;39;1;1;3;0;2529;154;15;229
17/04/2016;509;4001;4;292;49;4;1;4;0;4864;301;17;451;;17/04/2016;300;2163;4;190;39;4;0;1;0;2701;169;17;304;;17/04/2016;209;1838;0;102;10;0;1;3;0;2163;133;10;228
18/04/2016;335;3047;3;383;71;7;9;3;0;3858;250;17;339;;18/04/2016;205;1527;3;201;37;4;4;2;0;1983;130;7;178;;18/04/2016;130;1520;0;182;34;3;5;1;0;1875;120;12;167
19/04/2016;360;3124;3;439;109;4;2;5;0;4046;259;17;339;;19/04/2016;207;1567;1;233;55;2;2;3;0;2070;133;17;177;;19/04/2016;153;1557;2;206;54;2;0;2;0;1976;126;17;162
20/04/2016;336;3331;2;447;110;10;4;12;0;4252;275;14;333;;20/04/2016;201;1685;1;242;59;6;3;9;0;2206;143;16;190;;20/04/2016;135;1646;1;205;51;4;1;3;0;2046;132;10;174
21/04/2016;350;3170;0;395;94;5;6;4;0;4024;260;17;339;;21/04/2016;203;1574;0;213;53;4;1;2;0;2050;133;15;182;;21/04/2016;147;1596;0;182;41;1;5;2;0;1974;127;17;176
22/04/2016;538;3542;5;422;104;8;5;9;0;4633;292;17;430;;22/04/2016;302;1716;1;218;57;5;1;5;0;2305;147;17;192;;22/04/2016;236;1826;4;204;47;3;4;4;0;2328;145;17;238
23/04/2016;571;3733;3;350;97;7;3;13;0;4777;299;11;412;;23/04/2016;254;1770;0;187;56;3;2;5;0;2277;144;15;236;;23/04/2016;317;1963;3;163;41;4;1;8;0;2500;155;11;272
24/04/2016;639;4714;9;379;71;12;4;17;0;5845;371;16;659;;24/04/2016;294;2320;5;216;38;5;4;13;0;2895;182;16;383;;24/04/2016;345;2394;4;163;33;7;0;4;0;2950;189;12;297
25/04/2016;921;5883;6;355;60;10;0;10;0;7245;462;17;685;;25/04/2016;476;3144;6;218;43;8;0;6;0;3901;245;18;469;;25/04/2016;445;2739;0;137;17;2;0;4;0;3344;216;11;459
26/04/2016;542;3591;6;394;128;11;10;11;0;4693;303;17;428;;26/04/2016;321;1868;2;213;65;5;4;7;0;2485;161;17;228;;26/04/2016;221;1723;4;181;63;6;6;4;0;2208;142;17;200
27/04/2016;542;3632;1;442;131;11;11;9;0;4779;305;17;385;;27/04/2016;325;1804;1;248;72;7;4;7;0;2468;158;17;212;;27/04/2016;217;1828;0;194;59;4;7;2;0;2311;147;18;195
28/04/2016;530;3858;2;438;114;13;10;11;0;4976;316;17;458;;28/04/2016;313;1922;1;234;61;6;6;8;0;2551;162;17;225;;28/04/2016;217;1936;1;204;53;7;4;3;0;2425;154;17;233
29/04/2016;587;3764;2;434;113;5;11;8;0;4924;311;17;454;;29/04/2016;325;1823;0;235;62;2;7;4;0;2458;157;17;219;;29/04/2016;262;1941;2;199;51;3;4;4;0;2466;155;17;235
30/04/2016;682;3998;2;387;87;3;1;6;0;5166;326;15;530;;30/04/2016;371;2024;0;190;49;1;1;3;0;2639;167;15;295;;30/04/2016;311;1974;2;197;38;2;0;3;0;2527;160;15;235
01/05/2016;749;4303;0;285;41;3;0;7;0;5388;332;16;533;;01/05/2016;413;2208;0;183;21;2;0;5;0;2832;175;18;347;;01/05/2016;336;2095;0;102;20;1;0;2;0;2556;157;11;285
02/05/2016;495;3496;2;368;109;11;9;9;0;4499;285;16;369;;02/05/2016;302;1815;1;210;65;9;2;6;0;2410;151;16;197;;02/05/2016;193;1681;1;158;44;2;7;3;0;2089;134;17;184
03/05/2016;577;3696;4;417;116;5;5;10;0;4830;308;17;432;;03/05/2016;325;1865;2;222;65;5;2;5;0;2491;158;17;224;;03/05/2016;252;1831;2;195;51;0;3;5;0;2339;150;17;208
04/05/2016;573;3930;4;430;135;11;8;9;0;5100;325;17;422;;04/05/2016;320;1934;2;247;70;6;3;4;0;2586;164;17;232;;04/05/2016;253;1996;2;183;65;5;5;5;0;2514;161;16;204
05/05/2016;627;4028;3;462;114;11;10;20;0;5275;339;16;447;;05/05/2016;343;1995;0;251;70;4;3;11;0;2677;173;16;234;;05/05/2016;284;2033;3;211;44;7;7;9;0;2598;166;11;223
06/05/2016;654;4179;7;470;128;10;5;10;0;5463;347;17;461;;06/05/2016;376;2036;4;267;70;7;1;5;0;2766;178;13;229;;06/05/2016;278;2143;3;203;58;3;4;5;0;2697;169;17;237
07/05/2016;717;4097;4;376;90;7;1;9;0;5301;339;12;459;;07/05/2016;391;2042;3;208;57;1;0;6;0;2708;172;16;231;;07/05/2016;326;2055;1;168;33;6;1;3;0;2593;166;10;268
08/05/2016;792;4250;2;288;41;6;1;7;0;5387;333;17;506;;08/05/2016;462;2283;0;180;23;3;1;4;0;2956;182;17;328;;08/05/2016;330;1967;2;108;18;3;0;3;0;2431;150;11;259
09/05/2016;547;3586;6;439;91;10;5;8;0;4692;303;17;418;;09/05/2016;314;1804;2;254;48;6;0;3;0;2431;158;17;230;;09/05/2016;233;1782;4;185;43;4;5;5;0;2261;144;17;188
10/05/2016;573;3771;5;439;107;9;3;10;0;4917;318;17;440;;10/05/2016;340;1931;3;241;61;6;2;3;0;2587;168;17;231;;10/05/2016;233;1840;2;198;46;3;1;7;0;2330;150;17;209
11/05/2016;538;3712;3;435;89;10;10;5;0;4802;310;17;421;;11/05/2016;311;1847;2;242;46;8;4;3;0;2463;160;14;223;;11/05/2016;227;1865;1;193;43;2;6;2;0;2339;149;17;218
12/05/2016;526;3700;2;440;130;14;8;10;0;4830;307;16;399;;12/05/2016;305;1865;1;233;59;10;6;9;0;2488;159;14;230;;12/05/2016;221;1835;1;207;71;4;2;1;0;2342;148;10;192